GW1524 Weather Reports


time (UTC)temp
C
wind
direction
speed
KPH
gust
KPH
rain 1hr
cm
rain 24hr
cm
rain mn
cm
humidity
%
barometer
mb
20260507015556 7 10 4.8 8.0 0.15 0.91 0.91 99 1009.2
20260507014527 7 340 4.8 9.7 0.18 0.91 0.91 99 1009.2
20260507013531 7 12 4.8 6.4 0.18 0.89 0.89 99 1009.1
20260507012531 7 349 4.8 6.4 0.15 0.86 0.86 99 1008.9
20260507011531 8 305 3.2 8.0 0.13 0.84 0.84 99 1009.1
20260507010521 8 351 4.8 8.0 0.08 0.81 0.79 99 1009.0
20260507005532 8 344 4.8 8.0 0.05 0.76 0.76 99 1008.9
20260507004521 8 357 6.4 9.7 0.03 0.74 0.74 99 1008.5
20260507003547 8 352 8.0 14.5 0.03 0.74 0.71 99 1008.4
20260507002546 9 352 8.0 11.3 0.00 0.71 0.71 99 1008.5
20260507001521 9 340 4.8 9.7 0.00 0.71 0.71 98 1008.3
20260507000522 10 356 8.0 11.3 0.00 0.71 0.71 97 1008.0
20260506235522 10 355 4.8 9.7 0.00 0.71 0.71 97 1007.7
20260506234522 11 2 6.4 16.1 0.00 0.71 0.71 99 1007.5
20260506233558 11 347 1.6 3.2 0.00 0.71 0.71 100 1007.3
20260506232558 11 56 4.8 8.0 0.00 0.71 0.71 97 1007.0
20260506231523 11 313 4.8 12.9 0.08 0.71 0.71 98 1006.8
20260506230533 12 325 3.2 6.4 0.08 0.71 0.71 97 1006.6
20260506225559 12 299 4.8 8.0 0.08 0.71 0.71 98 1006.4
20260506224523 13 323 4.8 8.0 0.08 0.71 0.71 97 1006.1
20260506223523 14 349 6.4 12.9 0.08 0.71 0.71 98 1005.7
20260506222535 14 238 4.8 12.9 0.08 0.74 0.71 99 1005.3
20260506221535 14 153 3.2 8.0 0.00 0.66 0.61 99 1005.2
20260506220545 14 173 3.2 3.2 0.00 0.69 0.61 99 1005.2
20260506215521 14 167 3.2 4.8 0.00 0.69 0.61 99 1005.3
20260506214520 14 155 1.6 3.2 0.00 0.69 0.61 99 1005.3
20260506213521 14 168 1.6 3.2 0.00 0.69 0.61 99 1005.3
20260506212521 14 214 3.2 6.4 0.00 0.69 0.61 99 1005.2
20260506211521 14 153 3.2 4.8 0.00 0.69 0.61 99 1005.2
20260506210521 14 191 3.2 4.8 0.00 0.69 0.61 99 1005.3
20260506205522 14 153 3.2 4.8 0.00 0.69 0.61 99 1005.4
20260506204522 14 180 1.6 6.4 0.00 0.69 0.61 99 1005.5
20260506203522 14 188 3.2 4.8 0.00 0.69 0.61 99 1005.5
20260506202523 14 174 1.6 3.2 0.00 0.69 0.61 99 1005.6
20260506201547 14 209 1.6 3.2 0.00 0.69 0.61 99 1005.7
20260506200523 14 213 1.6 3.2 0.00 0.69 0.61 99 1005.8
20260506195523 14 177 1.6 4.8 0.00 0.69 0.61 99 1005.8
20260506194523 14 215 1.6 3.2 0.00 0.69 0.61 99 1005.9
20260506193523 14 203 3.2 4.8 0.03 0.69 0.61 99 1006.0
20260506192549 14 185 3.2 8.0 0.05 0.69 0.61 99 1006.1
20260506191523 14 245 1.6 3.2 0.08 0.69 0.61 99 1006.1
20260506190524 14 179 1.6 4.8 0.10 0.69 0.61 99 1006.2
20260506185524 14 233 1.6 3.2 0.13 0.69 0.61 99 1006.4
20260506184524 14 249 1.6 3.2 0.15 0.66 0.61 99 1006.4
20260506183704 14 217 3.2 6.4 0.15 0.66 0.61 99 1006.4
20260506182525 14 213 1.6 3.2 0.13 0.61 0.56 99 1006.5
20260506181524 14 190 1.6 4.8 0.15 0.58 0.53 99 1006.5
20260506180525 14 303 1.6 1.6 0.20 0.56 0.51 99 1006.7
20260506175525 14 234 1.6 4.8 0.23 0.53 0.48 99 1006.8
20260506174525 14 234 1.6 6.4 0.28 0.53 0.46 99 1006.8
20260506173525 14 229 1.6 3.2 0.33 0.51 0.46 99 1006.9
20260506172526 14 229 1.6 3.2 0.36 0.48 0.43 99 1007.1
20260506171525 14 260 1.6 3.2 0.30 0.43 0.38 99 1007.2
20260506170551 14 204 1.6 3.2 0.25 0.38 0.30 99 1007.3
20260506165526 14 264 0.0 1.6 0.20 0.33 0.25 99 1007.7
20260506164616 14 245 1.6 4.8 0.15 0.25 0.20 99 1007.9
20260506163707 14 244 1.6 1.6 0.10 0.20 0.13 99 1007.9
20260506162527 14 238 1.6 6.4 0.05 0.15 0.08 99 1007.9
20260506161527 15 242 1.6 6.4 0.05 0.13 0.08 100 1008.0
20260506160540 15 224 1.6 4.8 0.05 0.13 0.05 99 1008.1
20260506155541 15 186 1.6 3.2 0.03 0.10 0.05 99 1008.0
20260506154527 15 226 0.0 3.2 0.03 0.10 0.05 100 1008.0
20260506153528 15 247 1.6 3.2 0.03 0.10 0.03 100 1008.0
20260506152528 15 95 0.0 3.2 0.03 0.10 0.03 99 1008.1
20260506151528 15 214 0.0 3.2 0.03 0.08 0.03 99 1008.3
20260506150528 15 277 0.0 0.0 0.03 0.08 0.03 98 1008.6
20260506145528 15 149 1.6 4.8 0.03 0.08 0.03 97 1008.7
20260506144528 15 170 1.6 4.8 0.00 0.08 0.00 94 1008.8
20260506143529 16 233 1.6 3.2 0.00 0.08 0.00 90 1008.8
20260506142529 16 151 3.2 6.4 0.00 0.05 0.00 90 1008.7
20260506141529 16 226 3.2 8.0 0.00 0.05 0.00 90 1008.6
20260506140529 16 203 1.6 3.2 0.00 0.05 0.00 89 1008.5
20260506135530 16 243 1.6 4.8 0.00 0.05 0.00 89 1008.3
20260506134529 16 214 3.2 8.0 0.00 0.05 0.00 89 1008.2
20260506133530 16 236 3.2 6.4 0.00 0.05 0.00 89 1008.1
20260506132530 15 240 3.2 6.4 0.00 0.05 0.00 91 1008.1
20260506131555 15 231 1.6 3.2 0.00 0.05 0.00 92 1008.2
20260506130530 15 187 1.6 4.8 0.00 0.05 0.00 93 1008.2
20260506125531 15 208 1.6 3.2 0.00 0.05 0.00 93 1008.5
20260506124531 14 187 1.6 4.8 0.00 0.05 0.00 93 1008.7
20260506123531 14 173 1.6 3.2 0.00 0.05 0.00 93 1009.0
20260506122531 14 178 1.6 3.2 0.00 0.05 0.00 94 1009.0
20260506121531 14 190 1.6 3.2 0.00 0.05 0.00 94 1009.0
20260506120532 13 229 1.6 3.2 0.00 0.05 0.00 93 1009.0
20260506115532 13 208 1.6 3.2 0.00 0.05 0.00 93 1009.0
20260506114532 13 187 3.2 3.2 0.00 0.05 0.00 93 1009.0
20260506113532 13 211 3.2 4.8 0.00 0.05 0.00 93 1008.9
20260506112557 13 207 1.6 4.8 0.00 0.05 0.00 94 1008.6
20260506111533 13 216 1.6 3.2 0.00 0.05 0.00 94 1008.7
20260506110533 13 218 3.2 3.2 0.00 0.05 0.00 94 1008.9
20260506105533 13 229 3.2 4.8 0.00 0.05 0.00 93 1008.9
20260506104533 12 217 1.6 4.8 0.00 0.05 0.00 94 1008.9
20260506103558 12 223 1.6 3.2 0.00 0.05 0.00 95 1008.9
20260506102533 12 223 1.6 3.2 0.00 0.05 0.00 96 1008.7
20260506101534 11 216 3.2 4.8 0.00 0.05 0.00 97 1008.6
20260506100534 11 208 4.8 4.8 0.00 0.05 0.00 99 1008.6
20260506095534 10 195 3.2 4.8 0.00 0.05 0.00 99 1008.5
20260506094534 10 194 3.2 4.8 0.00 0.05 0.00 99 1008.4
20260506093534 10 195 3.2 4.8 0.00 0.05 0.00 99 1008.4
20260506092600 10 193 4.8 4.8 0.00 0.05 0.00 99 1008.4
20260506091535 10 207 3.2 4.8 0.00 0.05 0.00 99 1008.4
20260506090534 10 203 4.8 4.8 0.00 0.05 0.00 99 1008.5
20260506085535 10 200 3.2 4.8 0.00 0.05 0.00 99 1008.7
20260506084535 10 208 4.8 6.4 0.00 0.05 0.00 99 1008.7
20260506083521 10 205 4.8 6.4 0.00 0.05 0.00 99 1008.6
20260506082546 10 200 4.8 6.4 0.00 0.05 0.00 99 1008.6
20260506081546 10 205 4.8 4.8 0.00 0.05 0.00 99 1008.8
20260506080611 10 206 4.8 6.4 0.00 0.05 0.00 99 1008.9
20260506073522 11 207 3.2 4.8 0.00 0.05 0.00 99 1009.1
20260506072522 11 194 1.6 3.2 0.00 0.05 0.00 99 1009.2
20260506071522 11 206 3.2 4.8 0.00 0.05 0.00 99 1009.3
20260506070522 11 208 3.2 4.8 0.00 0.05 0.00 99 1009.4
20260506061523 12 206 3.2 4.8 0.00 0.05 0.00 100 1009.4
20260506060603 12 236 0.0 1.6 0.00 0.05 0.00 99 1009.4
20260506050549 12 324 0.0 3.2 0.00 0.05 0.00 99 1009.7
20260506044524 13 205 1.6 3.2 0.00 0.05 0.00 99 1009.8
20260506043524 13 183 0.0 0.0 0.00 0.05 0.00 100 1009.7
20260506042525 13 229 1.6 3.2 0.00 0.05 0.00 100 1009.7
20260506041525 13 207 0.0 1.6 0.00 0.05 0.00 100 1009.7
20260506040525 13 39 1.6 3.2 0.00 0.05 0.00 99 1009.6
20260506035526 14 131 1.6 3.2 0.00 0.05 0.05 99 1009.4
20260506034551 14 352 0.0 1.6 0.00 0.05 0.05 99 1009.4
20260506033525 14 157 0.0 1.6 0.00 0.05 0.05 98 1009.4
20260506032551 14 234 0.0 1.6 0.00 0.05 0.05 98 1009.3
20260506031526 14 209 0.0 3.2 0.00 0.05 0.05 97 1009.3
20260506030526 14 224 1.6 3.2 0.00 0.05 0.05 97 1009.4
20260506025527 14 199 1.6 3.2 0.00 0.05 0.05 97 1009.5
20260506024527 14 223 3.2 3.2 0.00 0.05 0.05 97 1009.5
20260506023552 14 234 1.6 3.2 0.00 0.05 0.05 96 1009.6
20260506022527 15 4 0.0 1.6 0.00 0.05 0.05 95 1009.7
20260506021528 15 127 0.0 0.0 0.00 0.05 0.05 93 1009.7
20260506020522 15 115 0.0 1.6 0.00 0.05 0.05 93 1009.8